Regional Weather Roundup
Issued by NWS

Home | Current Version | Previous Version | Text Only | Print | Product List | Glossary On
Versions: 1 2 3 4 5 6 7 8 9 10 11 12 13 14 15 16 17 18 19 20 21 22 23 24 25 26 27 28 29 30 31 32 33 34 35 36 37 38 39 40 41 42 43 44 45 46 47 48 49 50
000
ASUS43 KDMX 210106
RWRIA

WEATHER ROUNDUP FOR IOWA
NATIONAL WEATHER SERVICE DES MOINES IA
700 PM CST SAT JAN 20 2018

NOTE: "FAIR" INDICATES FEW OR NO CLOUDS BELOW 12,000 FEET WITH NO
SIGNIFICANT WEATHER AND/OR OBSTRUCTIONS TO VISIBILITY.

* - THESE STATIONS ARE NOT NWS STATIONS...THUS NOT UNDER NWS
QUALITY CONTROL.  THEY ALSO DO NOT REPORT WEATHER SUCH
AS PRECIPITATION OR FOG.

IAZ001>003-012>014-020>022-031>034-043>046-210200-
   NORTHWEST IOWA

CITY           SKY/WX    TMP DP  RH WIND       PRES   REMARKS
CARROLL *      CLOUDY    36  32  87 SE3       29.87R
CHEROKEE *     CLOUDY    39  31  72 NE3       29.87F
DENISON *      PTCLDY    36  32  87 E6        29.87S WCI  31
LE MARS *      CLOUDY    36  30  80 N8        29.88S WCI  29
ORANGE CITY *  CLOUDY    39  36  87 NE6       29.88S WCI  35
SHELDON *      CLOUDY    32  30  93 NE7       29.87S WCI  26
SIOUX CITY     CLOUDY    42  33  70 NE10      29.86R
SPENCER        CLOUDY    35  30  82 NE9       29.89F WCI  28
STORM LAKE *   CLOUDY    37  32  81 NE9       29.87S WCI  31
$$

IAZ055>058-069>071-079>083-090>094-210200-
   SOUTHWEST IOWA

CITY           SKY/WX    TMP DP  RH WIND       PRES   REMARKS
ATLANTIC *     CLOUDY    34  34 100 CALM      29.87S
AUDUBON *      CLOUDY    30  27  86 CALM      29.88S
CLARINDA *     CLOUDY    41  41 100 CALM        N/A
COUNCIL BLFS * CLOUDY    41  41 100 SE5       29.85S
CRESTON *      CLOUDY    43  39  87 E3        29.89S
HARLAN  *      CLOUDY    37  36  93 CALM      29.89F
LAMONI         CLOUDY    46  40  79 SE5       29.88R
RED OAK *      CLOUDY    45  41  87 CALM      29.87R
SHENANDOAH *   CLOUDY    41  39  93 NE7       29.87S
$$

IAZ047>049-059>061-072>074-084-210200-
   CENTRAL IOWA

CITY           SKY/WX    TMP DP  RH WIND       PRES   REMARKS
AMES           CLOUDY    35  34  96 CALM      29.90R
ANKENY *       CLOUDY    34  34 100 CALM      29.91S FOG
BOONE *        CLOUDY    34  32  93 CALM      29.88S
CHARITON *     CLOUDY    43  39  87 E6        29.90R
DES MOINES     CLOUDY    38  34  85 E5        29.90R WCI  34
GRINNELL*      CLOUDY    36  34  93 CALM      29.92R
KNOXVILLE *    CLOUDY    43  37  81 E5        29.90R
MARSHALLTOWN   CLOUDY    37  35  92 S5        29.90R WCI  33
NEWTON *       CLOUDY    39  37  93 SE5       29.91S
PELLA *        CLOUDY    40  36  86 E5        29.92S
PERRY *          N/A     35  34  96 SE5       29.89R WCI  31
$$

IAZ004>006-015-016-023>025-035-036-210200-
   NORTH CENTRAL IOWA

CITY           SKY/WX    TMP DP  RH WIND       PRES   REMARKS
ALGONA *       CLOUDY    36 N/A N/A NE9       29.90S WCI  29
CLARION *      CLOUDY    37  37 100 E6        29.90S WCI  33
ESTHERVILLE    CLOUDY    31  31 100 NE7       29.89F WCI  24
FORT DODGE *   CLOUDY    33  30  88 E6        29.89S WCI  28
MASON CITY     CLOUDY    33  31  92 CALM      29.92R
FOREST CITY *    N/A     36  34  93 CALM      29.91R
WEBSTER CITY * CLOUDY    34  32  93 NE3       29.87S
IOWA FALLS *     N/A     35  33  92 CALM      29.91S
$$

IAZ007>011-017>019-026>030-037>042-050>054-066-210200-
   NORTHEAST IOWA

CITY           SKY/WX    TMP DP  RH WIND       PRES   REMARKS
CEDAR RAPIDS     N/A     34  32  92 SE6       29.91S FOG     WCI  29
CHARLES CITY *   N/A     39  39 100 E6        29.91R WCI  35
CLINTON *      CLOUDY    36  34  92 CALM      29.95F
DECORAH *        N/A     39  32  75 E5        29.89S
DUBUQUE          N/A     32  28  85 S5        29.92S WCI  27
MONTICELLO *     N/A     34  32  93 S7        29.92F WCI  28
OELWEIN *        N/A     37  37 100 SE6       29.91S WCI  33
WATERLOO         N/A     31  28  89 CALM      29.91R
$$

IAZ064-065-067-068-078-210200-
   EAST CENTRAL IOWA

CITY           SKY/WX    TMP DP  RH WIND       PRES   REMARKS
DAVENPORT      CLOUDY    35  32  88 CALM      29.97S FOG
IOWA CITY      CLOUDY    39  34  82 CALM      29.95S
MT. PLEASANT * CLOUDY    39  36  87 E6        29.94S WCI  35
MUSCATINE *    CLOUDY    39  36  87 CALM      29.95F
QUAD CITIES    CLOUDY    43  37  79 CALM      29.95R
$$

IAZ062-063-075>077-085>089-095>099-210200-
   SOUTHEAST IOWA

CITY           SKY/WX    TMP DP  RH WIND       PRES   REMARKS
BURLINGTON     CLOUDY    42  37  82 E3        29.94R
FAIRFIELD *    CLOUDY    41  37  87 E6        29.93R
FORT MADISON * CLOUDY    45  41  87 S6        29.95R
KEOKUK *       CLOUDY    46  43  87 S6        29.94R
OSKALOOSA *    CLOUDY    40  36  86 N3        29.92R
OTTUMWA        CLOUDY    43  37  79 E8        29.91R
WASHINGTON *   CLOUDY    41  41 100 SE7       29.94S
$$

ABBREVIATIONS USED IN REMARKS
   TC - TEMPERATURES IN CELSIUS
  WCI - WIND CHILL INDEX
   HX - HEAT INDEX
  VSB - VISIBILITY
$$





USA.gov is the U.S. government's official web portal to all federal, state and local government web resources and services.